BAW18A EGCC-EHAM

Flight info

Callsign BAW18A
Flight time 0h 49m
Altitude 33000
Route DESIG L603 LAMSO
Aircraft A388/J-SADE2E3FGHIJ3J4J5M1RWXY/LB1D1

Departure

Time 2026-05-06 17:47
Airport Manchester Airport (EGCC)

Arrival

Time 2026-05-06 18:37
Airport Amsterdam Airport Schiphol (EHAM)
Time Latitude Longitude Altitude Speed Heading
2026-05-06 16:59 53.36571 -2.28356 261 ft 0 kts 315°
2026-05-06 17:07 53.36575 -2.28362 260 ft 3 kts 315°
2026-05-06 17:08 53.36571 -2.28356 260 ft 0 kts 315°
2026-05-06 17:34 53.36565 -2.28345 260 ft 4 kts 315°
2026-05-06 17:34 53.36546 -2.28312 265 ft 4 kts 315°
2026-05-06 17:34 53.36527 -2.28282 264 ft 2 kts 315°
2026-05-06 17:34 53.36517 -2.28258 264 ft 4 kts 255°
2026-05-06 17:35 53.36528 -2.28227 265 ft 1 kts 224°
2026-05-06 17:35 53.36512 -2.28252 264 ft 4 kts 224°
2026-05-06 17:35 53.36496 -2.28278 261 ft 0 kts 224°
2026-05-06 17:38 53.36460 -2.28337 260 ft 14 kts 224°
2026-05-06 17:39 53.36379 -2.28453 260 ft 13 kts 182°
2026-05-06 17:39 53.36293 -2.28384 260 ft 15 kts 135°
2026-05-06 17:39 53.36216 -2.28252 260 ft 17 kts 134°
2026-05-06 17:39 53.36132 -2.28108 260 ft 18 kts 135°
2026-05-06 17:40 53.36037 -2.27966 260 ft 19 kts 139°
2026-05-06 17:40 53.35927 -2.27851 260 ft 19 kts 173°
2026-05-06 17:40 53.35779 -2.27868 254 ft 27 kts 186°
2026-05-06 17:40 53.35568 -2.27906 242 ft 32 kts 187°
2026-05-06 17:41 53.35396 -2.28019 242 ft 10 kts 222°
2026-05-06 17:41 53.35394 -2.28022 242 ft 0 kts 222°
2026-05-06 17:41 53.35350 -2.28090 241 ft 17 kts 223°
2026-05-06 17:42 53.35251 -2.28264 237 ft 23 kts 229°
2026-05-06 17:42 53.35140 -2.28489 236 ft 27 kts 231°
2026-05-06 17:42 53.35032 -2.28712 237 ft 22 kts 229°
2026-05-06 17:42 53.34915 -2.28918 230 ft 26 kts 225°
2026-05-06 17:43 53.34782 -2.29166 225 ft 29 kts 230°
2026-05-06 17:43 53.34692 -2.29314 221 ft 6 kts 206°
2026-05-06 17:43 53.34690 -2.29315 225 ft 0 kts 205°
2026-05-06 17:44 53.34680 -2.29323 218 ft 5 kts 200°
2026-05-06 17:44 53.34634 -2.29340 217 ft 8 kts 182°
2026-05-06 17:45 53.34571 -2.29318 221 ft 10 kts 149°
2026-05-06 17:45 53.34548 -2.29227 225 ft 9 kts 67°
2026-05-06 17:45 53.34592 -2.29112 223 ft 15 kts 50°
2026-05-06 17:45 53.34645 -2.29005 227 ft 0 kts 51°
2026-05-06 17:46 53.34645 -2.29004 227 ft 1 kts 51°
2026-05-06 17:47 53.34827 -2.28628 239 ft 84 kts 51°
2026-05-06 17:47 53.35340 -2.27564 248 ft 144 kts 51°
2026-05-06 17:47 53.36036 -2.26167 530 ft 161 kts 51°
2026-05-06 17:47 53.36765 -2.24697 1043 ft 165 kts 53°
2026-05-06 17:48 53.37457 -2.23241 1781 ft 157 kts 54°
2026-05-06 17:48 53.38113 -2.21771 2289 ft 166 kts 57°
2026-05-06 17:48 53.38806 -2.20093 2629 ft 187 kts 56°
2026-05-06 17:48 53.39623 -2.18213 3180 ft 209 kts 54°
2026-05-06 17:49 53.40562 -2.16174 3749 ft 232 kts 52°
2026-05-06 17:49 53.41619 -2.13956 4327 ft 254 kts 51°
2026-05-06 17:49 53.42757 -2.11594 5133 ft 264 kts 51°
2026-05-06 17:49 53.43914 -2.09199 6088 ft 268 kts 50°
2026-05-06 17:50 53.45098 -2.06745 6964 ft 273 kts 49°
2026-05-06 17:50 53.46307 -2.04240 7894 ft 278 kts 50°
2026-05-06 17:50 53.47531 -2.01700 8807 ft 283 kts 49°
2026-05-06 17:50 53.48739 -1.99049 9674 ft 289 kts 53°
2026-05-06 17:51 53.49899 -1.96243 10473 ft 297 kts 53°
2026-05-06 17:51 53.51111 -1.93273 10762 ft 320 kts 55°
2026-05-06 17:51 53.52072 -1.89761 11007 ft 343 kts 76°
2026-05-06 17:51 53.52165 -1.85785 11710 ft 350 kts 98°
2026-05-06 17:52 53.51553 -1.81794 12424 ft 355 kts 106°
2026-05-06 17:52 53.50811 -1.77805 13173 ft 360 kts 107°
2026-05-06 17:52 53.50052 -1.73771 13905 ft 364 kts 107°
2026-05-06 17:52 53.49301 -1.69688 14577 ft 368 kts 107°
2026-05-06 17:53 53.48554 -1.65547 15262 ft 372 kts 106°
2026-05-06 17:53 53.47810 -1.61378 15928 ft 375 kts 106°
2026-05-06 17:53 53.47058 -1.57152 16607 ft 379 kts 106°
2026-05-06 17:53 53.46299 -1.52898 17248 ft 383 kts 106°
2026-05-06 17:54 53.45528 -1.48600 17875 ft 387 kts 106°
2026-05-06 17:54 53.44749 -1.44265 18512 ft 390 kts 107°
2026-05-06 17:54 53.43973 -1.39959 19047 ft 393 kts 107°
2026-05-06 17:54 53.43167 -1.35498 19594 ft 397 kts 107°
2026-05-06 17:55 53.42363 -1.31054 20134 ft 400 kts 107°
2026-05-06 17:55 53.41560 -1.26626 20653 ft 403 kts 107°
2026-05-06 17:55 53.40742 -1.22116 21179 ft 406 kts 107°
2026-05-06 17:55 53.39918 -1.17585 21690 ft 410 kts 107°
2026-05-06 17:56 53.39080 -1.12992 22202 ft 413 kts 107°
2026-05-06 17:56 53.38237 -1.08381 22716 ft 416 kts 107°
2026-05-06 17:56 53.37382 -1.03721 23218 ft 420 kts 107°
2026-05-06 17:56 53.36520 -0.99034 23705 ft 423 kts 107°
2026-05-06 17:57 53.35650 -0.94319 24143 ft 426 kts 107°
2026-05-06 17:57 53.34770 -0.89556 24579 ft 429 kts 107°
2026-05-06 17:57 53.33883 -0.84770 25017 ft 431 kts 107°
2026-05-06 17:57 53.32993 -0.79977 25464 ft 434 kts 107°
2026-05-06 17:58 53.32100 -0.75187 25923 ft 437 kts 107°
2026-05-06 17:58 53.31192 -0.70324 26405 ft 440 kts 107°
2026-05-06 17:58 53.30273 -0.65412 26895 ft 444 kts 108°
2026-05-06 17:58 53.29347 -0.60481 27411 ft 447 kts 108°
2026-05-06 17:59 53.28412 -0.55511 27915 ft 450 kts 108°
2026-05-06 17:59 53.27466 -0.50495 28437 ft 454 kts 108°
2026-05-06 17:59 53.26515 -0.45469 28954 ft 457 kts 108°
2026-05-06 17:59 53.25549 -0.40377 29468 ft 461 kts 108°
2026-05-06 18:00 53.24573 -0.35243 29940 ft 466 kts 108°
2026-05-06 18:00 53.23590 -0.30087 30411 ft 469 kts 108°
2026-05-06 18:00 53.22591 -0.24869 30891 ft 472 kts 108°
2026-05-06 18:00 53.21588 -0.19640 31359 ft 475 kts 108°
2026-05-06 18:01 53.20572 -0.14361 31817 ft 478 kts 108°
2026-05-06 18:01 53.19550 -0.09062 32260 ft 482 kts 108°
2026-05-06 18:01 53.18517 -0.03724 32709 ft 485 kts 108°
2026-05-06 18:01 53.17474 0.01655 33050 ft 490 kts 109°
2026-05-06 18:02 53.16421 0.07070 33528 ft 493 kts 109°
2026-05-06 18:02 53.15372 0.12447 33966 ft 496 kts 109°
2026-05-06 18:02 53.14300 0.17931 34344 ft 499 kts 109°
2026-05-06 18:02 53.13204 0.23518 34702 ft 503 kts 109°
2026-05-06 18:03 53.12128 0.28986 34965 ft 508 kts 109°
2026-05-06 18:03 53.11027 0.34566 35033 ft 504 kts 109°
2026-05-06 18:03 53.08826 0.45676 35023 ft 507 kts 109°
2026-05-06 18:04 53.06609 0.56806 35023 ft 506 kts 109°
2026-05-06 18:04 53.04388 0.67887 35018 ft 505 kts 109°
2026-05-06 18:05 53.02157 0.78957 35013 ft 505 kts 110°
2026-05-06 18:05 52.99919 0.89998 34998 ft 505 kts 110°
2026-05-06 18:06 52.97766 1.01103 35005 ft 505 kts 105°
2026-05-06 18:06 52.96423 1.12538 34997 ft 506 kts 102°
2026-05-06 18:07 52.95116 1.23921 34996 ft 506 kts 102°
2026-05-06 18:07 52.93780 1.35354 35005 ft 499 kts 102°
2026-05-06 18:08 52.93128 1.40904 35005 ft 482 kts 102°
2026-05-06 18:08 52.92496 1.46268 35004 ft 469 kts 102°
2026-05-06 18:08 52.91233 1.56877 35004 ft 472 kts 102°
2026-05-06 18:09 52.89946 1.67598 35001 ft 473 kts 103°
2026-05-06 18:09 52.88657 1.78276 35002 ft 472 kts 103°
2026-05-06 18:10 52.87363 1.88905 34903 ft 469 kts 103°
2026-05-06 18:10 52.86715 1.94199 34469 ft 468 kts 103°
2026-05-06 18:10 52.86066 1.99475 33990 ft 466 kts 103°
2026-05-06 18:11 52.85430 2.04630 33517 ft 460 kts 103°
2026-05-06 18:11 52.84999 2.08110 33217 ft 456 kts 103°
2026-05-06 18:11 52.84155 2.14901 32486 ft 452 kts 103°
2026-05-06 18:11 52.83519 2.19986 31960 ft 449 kts 103°
2026-05-06 18:12 52.82889 2.25017 31409 ft 445 kts 103°
2026-05-06 18:12 52.82261 2.30011 30737 ft 442 kts 103°
2026-05-06 18:12 52.81636 2.34959 30072 ft 437 kts 103°
2026-05-06 18:12 52.81017 2.39849 29336 ft 433 kts 103°
2026-05-06 18:13 52.80402 2.44688 28788 ft 428 kts 103°
2026-05-06 18:13 52.79784 2.49530 27873 ft 433 kts 103°
2026-05-06 18:13 52.79157 2.54427 26890 ft 440 kts 103°
2026-05-06 18:13 52.78529 2.59308 26223 ft 439 kts 103°
2026-05-06 18:14 52.77895 2.64226 25610 ft 436 kts 103°
2026-05-06 18:14 52.77265 2.69099 25055 ft 431 kts 103°
2026-05-06 18:14 52.76643 2.73895 24509 ft 427 kts 103°
2026-05-06 18:14 52.76019 2.78687 23905 ft 425 kts 103°
2026-05-06 18:15 52.75396 2.83446 23347 ft 422 kts 103°
2026-05-06 18:15 52.74779 2.88152 22821 ft 417 kts 103°
2026-05-06 18:15 52.74166 2.92808 22552 ft 415 kts 103°
2026-05-06 18:15 52.73466 2.97434 22276 ft 415 kts 109°
2026-05-06 18:16 52.72407 3.01837 21971 ft 411 kts 117°
2026-05-06 18:16 52.71029 3.05943 21729 ft 407 kts 122°
2026-05-06 18:16 52.69620 3.09905 21478 ft 393 kts 122°
2026-05-06 18:16 52.68289 3.13700 21104 ft 381 kts 122°
2026-05-06 18:17 52.66968 3.17468 20658 ft 377 kts 122°
2026-05-06 18:17 52.65654 3.21206 20071 ft 377 kts 122°
2026-05-06 18:17 52.64350 3.24908 19692 ft 372 kts 122°
2026-05-06 18:17 52.63043 3.28614 19106 ft 374 kts 122°
2026-05-06 18:18 52.61743 3.32294 18614 ft 373 kts 122°
2026-05-06 18:18 52.60443 3.35966 18198 ft 369 kts 122°
2026-05-06 18:18 52.59216 3.39637 17686 ft 367 kts 116°
2026-05-06 18:18 52.58327 3.43572 17015 ft 370 kts 106°
2026-05-06 18:19 52.57806 3.47748 16193 ft 376 kts 99°
2026-05-06 18:19 52.57381 3.52039 15134 ft 387 kts 99°
2026-05-06 18:19 52.56925 3.56411 14454 ft 387 kts 100°
2026-05-06 18:19 52.56464 3.60736 14152 ft 377 kts 100°
2026-05-06 18:20 52.56018 3.64894 13922 ft 363 kts 99°
2026-05-06 18:20 52.55581 3.68946 13570 ft 355 kts 100°
2026-05-06 18:20 52.55298 3.71566 13408 ft 347 kts 99°
2026-05-06 18:20 52.54876 3.75469 12753 ft 349 kts 99°
2026-05-06 18:21 52.54450 3.79394 12180 ft 348 kts 99°
2026-05-06 18:21 52.54029 3.83261 11834 ft 340 kts 99°
2026-05-06 18:21 52.53616 3.87041 11373 ft 335 kts 99°
2026-05-06 18:21 52.53066 3.92052 10963 ft 336 kts 99°
2026-05-06 18:22 52.52787 3.94595 10908 ft 331 kts 100°
2026-05-06 18:22 52.52218 3.98187 10757 ft 318 kts 110°
2026-05-06 18:22 52.51403 4.01463 10510 ft 303 kts 112°
2026-05-06 18:22 52.50624 4.04607 10269 ft 295 kts 111°
2026-05-06 18:23 52.49864 4.07726 9865 ft 295 kts 111°
2026-05-06 18:23 52.49112 4.10824 9494 ft 292 kts 111°
2026-05-06 18:23 52.48367 4.13887 9177 ft 286 kts 111°
2026-05-06 18:23 52.47628 4.16907 8759 ft 285 kts 111°
2026-05-06 18:24 52.46903 4.19863 8395 ft 282 kts 110°
2026-05-06 18:24 52.46173 4.22835 8044 ft 280 kts 110°
2026-05-06 18:24 52.45396 4.25743 7762 ft 278 kts 120°
2026-05-06 18:24 52.44056 4.28014 7500 ft 281 kts 146°
2026-05-06 18:25 52.42218 4.29099 7204 ft 285 kts 173°
2026-05-06 18:25 52.40270 4.28762 6976 ft 283 kts 200°
2026-05-06 18:25 52.38628 4.27068 6932 ft 277 kts 222°
2026-05-06 18:25 52.37221 4.24993 6933 ft 267 kts 222°
2026-05-06 18:26 52.35860 4.23010 6941 ft 257 kts 222°
2026-05-06 18:26 52.34546 4.21095 6954 ft 249 kts 222°
2026-05-06 18:26 52.33262 4.19222 6946 ft 246 kts 222°
2026-05-06 18:26 52.31985 4.17351 6877 ft 249 kts 222°
2026-05-06 18:27 52.30679 4.15440 6675 ft 253 kts 222°
2026-05-06 18:27 52.29373 4.13590 6308 ft 247 kts 213°
2026-05-06 18:27 52.27771 4.12621 5669 ft 249 kts 181°
2026-05-06 18:27 52.26127 4.13080 5244 ft 240 kts 151°
2026-05-06 18:28 52.24870 4.14801 4751 ft 231 kts 118°
2026-05-06 18:28 52.24157 4.17074 4478 ft 226 kts 112°
2026-05-06 18:28 52.23702 4.19460 4435 ft 223 kts 93°
2026-05-06 18:28 52.23574 4.21992 4432 ft 226 kts 92°
2026-05-06 18:29 52.23453 4.24546 4435 ft 225 kts 91°
2026-05-06 18:29 52.23318 4.27078 4433 ft 222 kts 92°
2026-05-06 18:29 52.23172 4.29586 4432 ft 223 kts 92°
2026-05-06 18:29 52.23031 4.32122 4428 ft 225 kts 93°
2026-05-06 18:30 52.22903 4.34642 4388 ft 220 kts 92°
2026-05-06 18:30 52.22773 4.37046 4345 ft 202 kts 92°
2026-05-06 18:30 52.22647 4.39139 4077 ft 173 kts 92°
2026-05-06 18:30 52.22505 4.41078 3331 ft 173 kts 93°
2026-05-06 18:31 52.22382 4.43035 2591 ft 172 kts 92°
2026-05-06 18:31 52.22254 4.44942 2141 ft 166 kts 92°
2026-05-06 18:31 52.22113 4.46813 2024 ft 170 kts 92°
2026-05-06 18:31 52.21959 4.48741 2021 ft 171 kts 92°
2026-05-06 18:32 52.21809 4.50637 2015 ft 171 kts 92°
2026-05-06 18:32 52.21663 4.52561 2016 ft 171 kts 89°
2026-05-06 18:32 52.21771 4.54453 2014 ft 167 kts 72°
2026-05-06 18:32 52.22210 4.56195 2005 ft 165 kts 61°
2026-05-06 18:33 52.22771 4.57790 2001 ft 155 kts 57°
2026-05-06 18:33 52.23335 4.59250 2008 ft 149 kts 56°
2026-05-06 18:33 52.23877 4.60666 1902 ft 146 kts 56°
2026-05-06 18:33 52.24411 4.62050 1711 ft 145 kts 56°
2026-05-06 18:34 52.24947 4.63439 1485 ft 142 kts 56°
2026-05-06 18:34 52.25473 4.64802 1296 ft 139 kts 56°
2026-05-06 18:34 52.25957 4.66067 1098 ft 124 kts 55°
2026-05-06 18:34 52.26423 4.67266 940 ft 125 kts 55°
2026-05-06 18:35 52.26882 4.68464 770 ft 124 kts 55°
2026-05-06 18:35 52.27348 4.69671 609 ft 126 kts 54°
2026-05-06 18:35 52.27805 4.70864 425 ft 123 kts 54°
2026-05-06 18:35 52.28271 4.72075 265 ft 127 kts 55°
2026-05-06 18:36 52.28744 4.73315 97 ft 129 kts 51°
2026-05-06 18:36 52.29184 4.74503 6 ft 103 kts 46°
2026-05-06 18:36 52.29509 4.75257 3 ft 65 kts 59°
2026-05-06 18:36 52.29704 4.75792 2 ft 51 kts 58°
2026-05-06 18:37 52.29865 4.76209 2 ft 24 kts 57°
2026-05-06 18:37 52.30065 4.76576 3 ft 37 kts 25°
2026-05-06 18:37 52.30117 4.76610 4 ft 0 kts 26°
2026-05-06 18:39 52.30134 4.76624 4 ft 15 kts 31°
2026-05-06 18:39 52.30262 4.76734 4 ft 20 kts 27°
2026-05-06 18:39 52.30375 4.76991 4 ft 28 kts 57°
2026-05-06 18:40 52.30479 4.77256 4 ft 0 kts 57°
2026-05-06 18:40 52.30529 4.77386 4 ft 29 kts 58°
2026-05-06 18:40 52.30694 4.77590 4 ft 34 kts
2026-05-06 18:41 52.30888 4.77613 4 ft 24 kts
2026-05-06 18:41 52.31046 4.77623 4 ft 22 kts
2026-05-06 18:41 52.31192 4.77636 4 ft 20 kts
2026-05-06 18:41 52.31326 4.77648 4 ft 18 kts
2026-05-06 18:42 52.31446 4.77635 4 ft 17 kts 338°
2026-05-06 18:42 52.31540 4.77512 4 ft 18 kts 307°
2026-05-06 18:42 52.31576 4.77327 4 ft 17 kts 277°
2026-05-06 18:42 52.31570 4.77121 4 ft 19 kts 265°
2026-05-06 18:43 52.31561 4.76887 4 ft 22 kts 267°
2026-05-06 18:43 52.31554 4.76628 4 ft 24 kts 266°
2026-05-06 18:43 52.31543 4.76349 4 ft 25 kts 265°
2026-05-06 18:43 52.31532 4.76055 4 ft 26 kts 266°
2026-05-06 18:44 52.31524 4.75756 4 ft 27 kts 267°
2026-05-06 18:44 52.31510 4.75502 4 ft 14 kts 249°
2026-05-06 18:44 52.31426 4.75440 4 ft 15 kts 180°
2026-05-06 18:44 52.31353 4.75467 4 ft 6 kts 130°
2026-05-06 18:45 52.31348 4.75529 4 ft 7 kts 79°
2026-05-06 18:45 52.31352 4.75566 4 ft 0 kts 84°